Location: Unspecified
(54.1780°N, 0.0000°E)
Time: 16:24:44
(UTC+00:00)

Explorer 7 - Pass Details

Date: 20 June 2019
Orbit: 485 x 680 km, 50.3° (Epoch: 18 July)

Event Time Altitude Azimuth Distance (km) Brightness Sun altitude
Rises 10:10:23 0° 225° (SW) 2,816 10.4 52.9°
Reaches altitude 10° 10:12:47 10° 215° (SW) 1,952 9.8 53.1°
Maximum altitude 10:16:44 31° 153° (SSE) 1,112 9.8 53.5°
Drops below altitude 10° 10:20:54 10° 92° (E) 2,057 10.3 54.0°
Sets 10:23:29 0° 83° (E) 2,995 10.8 54.2°
